Location: Richterswil
(47.2055°N, 8.7071°E)
Time: 18:23:12
(UTC+00:00)

SL-16 R/B - Pass Details

Date: 07 June 2020
Orbit: 986 x 1006 km, 99.5° (Epoch: 08 July)

Event Time Altitude Azimuth Distance (km) Brightness Sun altitude
Exits shadow 01:55:28 15° 204° (SSW) 2,369 3.9 -12.1°
Maximum altitude 01:59:55 36° 264° (W) 1,520 3.2 -11.7°
Drops below altitude 10° 02:05:34 10° 329° (NNW) 2,762 5.2 -11.1°
Sets 02:08:18 0° 338° (NNW) 3,719 6.0 -10.8°
